Minneapolis Flying Cloud, MN

4:35 AM CST on November 22, 2019 (GMT -0600)
Flying Cloud

Weather History for KFCM - September, 2019

Change the Weather History Date:

Sunday, September 29, 2019

  Actual Average Record
Temperature  
Mean Temperature 54 °F -  
Max Temperature 60 °F 63 °F 86 °F (2000)
Min Temperature 50 °F 43 °F 35 °F (2003)
Degree Days  
Heating Degree Days 10    
Growing Degree Days 4 (Base 50)    
Moisture  
Dew Point 51 °F    
Average Humidity 88    
Maximum Humidity 93    
Minimum Humidity 69    
Precipitation  
Precipitation 0.29 in - - ()
Sea Level Pressure  
Sea Level Pressure 30.08 in    
Wind  
Wind Speed 12 mph (East)    
Max Wind Speed 17 mph    
Max Gust Speed 26 mph    
Visibility 6 miles    
Events Rain , Thunderstorm    
Averages and records for this station are not official NWS values.
T = Trace of Precipitation, MM = Missing Value Source: NWS Daily Summary

Daily Weather History Graph

Daily Weather History Graph

Search for Another Location

Airport or City:

Astronomy

Sep. 29, 2019 Rise Set
Actual Time 7:09 AM CDT 6:58 PM CDT
Civil Twilight 6:39 AM CDT 7:27 PM CDT
Nautical Twilight 6:05 AM CDT 8:01 PM CDT
Astronomical Twilight 5:31 AM CDT 8:36 PM CDT
Moon 8:00 AM CDT (9/29) 7:57 PM CDT (9/29)
Length of Visible Light 12h 47m
Length of Day
11h 49m
New Moon, 1% of the Moon is Illuminated
Sep 29
New Moon
Oct 5
First Quarter
Oct 13
Full
Oct 21
Last Quarter
Oct 27
New

Hourly Weather History & Observations

Time (CDT) Temp. Dew Point Humidity Pressure Visibility Wind Dir Wind Speed Gust Speed Precip Events Conditions
12:53 AM 54.0 °F 44.1 °F 69% 30.17 in 10.0 mi East 11.5 mph - 0.00 in Rain Light Rain
1:53 AM 53.1 °F 45.0 °F 74% 30.17 in 10.0 mi ENE 11.5 mph - 0.00 in   Overcast
2:53 AM 52.0 °F 46.0 °F 80% 30.16 in 10.0 mi ENE 10.4 mph - 0.01 in Rain Light Rain
3:53 AM 52.0 °F 48.0 °F 86% 30.17 in 3.0 mi East 9.2 mph - 0.06 in Rain Rain
4:39 AM 50.0 °F 46.0 °F 86% 30.16 in 1.8 mi ENE 15.0 mph 23.0 mph 0.10 in Rain Rain
4:53 AM 50.0 °F 46.0 °F 86% 30.17 in 3.0 mi ENE 12.7 mph 19.6 mph 0.16 in Rain Light Rain
5:17 AM 50.0 °F 46.0 °F 86% 30.16 in 6.0 mi East 8.1 mph 21.9 mph 0.02 in Rain Light Rain
5:31 AM 50.0 °F 46.0 °F 86% 30.15 in 4.0 mi East 11.5 mph 21.9 mph 0.02 in Rain Light Rain
5:53 AM 50.0 °F 46.0 °F 86% 30.16 in 4.0 mi East 12.7 mph 20.7 mph 0.03 in Rain Light Rain
6:53 AM 50.0 °F 46.9 °F 89% 30.16 in 6.0 mi East 13.8 mph - 0.02 in   Overcast
7:53 AM 50.0 °F 48.0 °F 93% 30.15 in 10.0 mi East 10.4 mph 18.4 mph N/A   Overcast
8:12 AM 50.0 °F 48.0 °F 93% 30.14 in 1.8 mi East 11.5 mph - N/A   Overcast
8:20 AM 50.0 °F 48.0 °F 93% 30.14 in 3.0 mi East 13.8 mph - N/A   Overcast
8:53 AM 51.1 °F 48.0 °F 89% 30.15 in 2.5 mi East 10.4 mph - 0.00 in   Overcast
9:53 AM 52.0 °F 48.9 °F 89% 30.14 in 2.5 mi East 9.2 mph - 0.01 in   Overcast
10:53 AM 53.1 °F 50.0 °F 89% 30.13 in 2.5 mi East 9.2 mph - N/A   Overcast
11:53 AM 54.0 °F 51.1 °F 90% 30.11 in 3.0 mi East 11.5 mph - N/A   Overcast
12:23 PM 55.0 °F 52.0 °F 89% 30.09 in 2.5 mi ESE 12.7 mph - N/A   Overcast
12:44 PM 55.0 °F 52.0 °F 89% 30.08 in 3.0 mi ESE 13.8 mph 24.2 mph N/A   Overcast
12:53 PM 55.9 °F 53.1 °F 90% 30.09 in 5.0 mi ESE 15.0 mph 23.0 mph N/A   Overcast
1:53 PM 57.0 °F 53.1 °F 87% 30.07 in 10.0 mi ESE 10.4 mph - N/A   Overcast
2:53 PM 57.0 °F 54.0 °F 89% 30.05 in 9.0 mi ESE 11.5 mph - N/A   Overcast
3:53 PM 57.0 °F 54.0 °F 89% 30.04 in 9.0 mi ESE 17.3 mph 21.9 mph N/A   Overcast
4:53 PM 57.0 °F 54.0 °F 89% 30.02 in 6.0 mi ESE 16.1 mph 21.9 mph N/A   Overcast
5:53 PM 57.9 °F 54.0 °F 87% 30.01 in 7.0 mi ESE 12.7 mph - N/A   Overcast
6:53 PM 57.9 °F 54.0 °F 87% 29.99 in 10.0 mi ESE 16.1 mph - N/A   Overcast
7:53 PM 57.9 °F 54.0 °F 87% 29.98 in 10.0 mi ESE 15.0 mph - N/A   Overcast
8:53 PM 57.0 °F 55.0 °F 93% 29.99 in 4.0 mi ESE 15.0 mph - N/A   Overcast
9:53 PM 57.9 °F 55.0 °F 90% 29.97 in 8.0 mi ESE 12.7 mph 23.0 mph N/A   Overcast
10:37 PM 57.9 °F 55.9 °F 93% 29.93 in 10.0 mi ESE 13.8 mph 26.5 mph N/A Thunderstorm Overcast
10:53 PM 59.0 °F 55.9 °F 90% 29.96 in 10.0 mi ESE 8.1 mph - 0.00 in Rain , Thunderstorm Light Rain
11:23 PM 59.0 °F 55.9 °F 90% 29.93 in 10.0 mi East 11.5 mph - 0.00 in   Overcast
11:53 PM 59.0 °F 55.9 °F 90% 29.92 in 10.0 mi East 13.8 mph - 0.00 in   Overcast